Terminal Aerodrome Forecast
Issued by NWS

Home | Current Version | Previous Version | Text Only | Print | Product List | Glossary On
Versions: 1 2 3 4 5 6 7 8 9 10 11 12 13 14 15 16 17 18 19 20 21 22 23 24 25 26 27 28 29 30
000
FTUS41 KBUF 272100 AAA
TAFJHW
TAF AMD
KJHW 272117Z 2721/2818 29009KT 3SM -SHSN OVC012
     FM272300 30009KT 6SM -SHSN BKN007 OVC020
     FM281600 33010KT P6SM -SHSN BKN012
      AMD LTD TO CLD VIS AND WIND=

USA.gov is the U.S. government's official web portal to all federal, state and local government web resources and services.